Weather Roundup
Issued by NWS

Home | Current Version | Previous Version | Graphics & Text | Print | Product List | Glossary Off
Versions: 1 2 3 4 5 6 7 8 9 10 11 12 13 14 15 16 17 18 19 20 21 22 23 24 25 26 27 28 29 30 31 32 33 34 35 36 37 38 39 40 41 42 43 44 45 46 47 48 49 50

000
NZUS93 KARX 221810
HRRWXR

CURRENT HOURLY OBSERVATIONS ACROSS
MUCH OF THE UPPER MISSISSIPPI VALLEY
NATIONAL WEATHER SERVICE LA CROSSE WI
100 PM CDT WED OCT 22 2014


...SOUTHEAST MINNESOTA...


CITY           SKY/WX    TMP DP  RH WIND       PRES   REMARKS
ROCHESTER      PTSUNNY   55  40  56 SE17G28   30.21F
ROCHESTER/MAYO FAIR      53  37  53 SE20G26   30.20F
WINONA         FAIR      55  37  50 S6        30.24F
AUSTIN         FAIR      54  39  58 S15G23    30.18F
ALBERT LEA     FAIR      55  41  58 SE20G26   30.15F
DODGE CENTER   FAIR      55  41  58 S21       30.18F
PRESTON        CLOUDY    53  39  60 S17       30.22F
OWATONNA       FAIR      55  41  58 S17G25    30.15F
FARIBAULT      PTSUNNY   57  43  58 SE16G22   30.15F
$$

...ELSEWHERE IN MINNESOTA...


CITY           SKY/WX    TMP DP  RH WIND       PRES   REMARKS
MINNEAPOLIS    CLOUDY    53  40  61 SE16      30.14F
INTNL FALLS    FAIR      59  41  51 S14G29    29.98F
DULUTH         FAIR      55  38  52 S18       30.12F
RED WING       NOT AVBL
REDWOOD FALLS  PTSUNNY   65  44  46 S26G33    30.00F
MANKATO        FAIR      61  39  44 SE20G28   30.10F
WORTHINGTON    FAIR      64  45  48 S16G24    30.03F
FAIRMONT       PTSUNNY   61  39  44 S26       30.08F
$$

...SOUTHWEST WISCONSIN...


CITY           SKY/WX    TMP DP  RH WIND       PRES   REMARKS
LA CROSSE      FAIR      55  37  50 S9        30.27F
PRAIRIE DU CHI FAIR      54  38  54 SE5       30.28F
BOSCOBEL       FAIR      57  39  51 S8        30.30F
LONE ROCK      FAIR      59  38  45 S7        30.31F
PLATTEVILLE    FAIR      55  40  58 SE9       30.31F
FORT MC COY    FAIR      56  34  44 SE8       30.28F
CAMP DOUGLAS   MOSUNNY   54  39  58 SE10      30.30F
VIROQUA        FAIR      54  38  54 SE7       30.27F
WIS DELLS      FAIR      53  36  52 S7        30.31F
$$

...ELSEWHERE IN WISCONSIN...


CITY           SKY/WX    TMP DP  RH WIND       PRES   REMARKS
MILWAUKEE      MOSUNNY   51  40  65 E8        30.35F
MADISON        FAIR      54  39  57 S7        30.33F
GREEN BAY      SUNNY     51  38  60 VRB5      30.35F
EAU CLAIRE     FAIR      55  36  48 S16       30.23F
BLACK RVR FLS  FAIR      56  28  34 SE8       30.26F
MEDFORD        FAIR      49  33  55 SE10      30.27F
WAUSAU         FAIR      52  31  44 SE10      30.29F
WIS RAPIDS     FAIR      53  36  52 SE8G16    30.32F
MARSHFIELD     FAIR      52  36  54 SE9       30.29F
RICE LAKE      FAIR      53  39  59 SE14      30.22F
$$

...NORTHEAST IOWA...


CITY           SKY/WX    TMP DP  RH WIND       PRES   REMARKS
DECORAH        FAIR      55  39  54 SE10G18   30.25F
MASON CITY     CLOUDY    55  42  61 SE18G26   30.19F
CHARLES CITY   FAIR      55  41  58 SE14G22   30.22F
OELWEIN        FAIR      55  41  58 S18       30.25F
$$

...ELSEWHERE IN IOWA...


CITY           SKY/WX    TMP DP  RH WIND       PRES   REMARKS
DES MOINES     PTSUNNY   59  44  57 SE16      30.19F
IOWA CITY      FAIR      56  43  61 SE7       30.29F
FORT DODGE     FAIR      61  45  55 S12       30.14F
$$

...NORTHERN ILLINOIS...


CITY           SKY/WX    TMP DP  RH WIND       PRES   REMARKS
CHICAGO-OHARE  MOSUNNY   54  38  54 E5        30.34F
CHICAGO-MIDWAY MOSUNNY   54  38  54 E8        30.34F
MOLINE         FAIR      56  40  55 SE9       30.30F
ROCKFORD       FAIR      57  38  48 S6        30.35F
PEORIA         FAIR      58  39  49 SE9       30.31F
$$

NOTE: "FAIR" INDICATES FEW OR NO CLOUDS BELOW 12,000 FEET WITH NO
SIGNIFICANT WEATHER AND/OR OBSTRUCTIONS TO VISIBILITY. WIND
SPEEDS ARE IN MILES-PER-HOUR.



USA.gov is the U.S. government's official web portal to all federal, state and local government web resources and services.